EW9592 Weather Reports


Display with metric or nautical units.
time (UTC)temp
F
wind
direction
speed
MPH
gust
MPH
rain 1hr
in
rain 24hr
in
rain mn
in
humidity
%
barometer
mb
20260507064525 45 352 0.0 0.0 0.00 0.15 0.00 93 1014.8
20260507063036 45 353 0.0 0.0 0.00 0.15 0.00 93 1014.9
20260507061526 45 353 0.0 0.0 0.00 0.15 0.00 93 1014.9
20260507060036 46 353 0.0 0.0 0.00 0.15 0.00 93 1015.0
20260507054522 46 353 0.0 0.0 0.00 0.28 0.00 93 1014.9
20260507053021 46 353 0.0 0.0 0.00 0.28 0.00 92 1014.9
20260507051519 46 353 0.0 0.0 0.00 0.28 0.00 92 1014.9
20260507050018 46 353 0.0 0.0 0.00 0.28 0.00 92 1014.9
20260507044518 47 353 0.0 0.0 0.00 0.55 0.00 92 1014.8
20260507043014 47 353 0.0 0.0 0.00 0.55 0.00 92 1015.0
20260507041513 47 353 0.0 0.0 0.00 0.55 0.00 92 1015.0
20260507040010 47 353 0.0 0.0 0.00 0.55 0.00 91 1015.1
20260507034526 48 353 0.0 0.0 0.00 0.62 0.55 91 1015.3
20260507033109 48 353 0.0 0.0 0.00 0.62 0.55 91 1015.2
20260507031506 48 352 0.0 0.0 0.00 0.62 0.55 91 1015.0
20260507030009 48 353 0.0 0.0 0.00 0.62 0.55 90 1014.9
20260507024504 48 353 0.0 0.0 0.00 0.63 0.55 89 1014.7
20260507023003 49 353 0.0 0.0 0.00 0.63 0.55 89 1014.7
20260507021502 50 353 0.0 0.0 0.00 0.63 0.55 87 1014.6
20260507020100 50 353 0.0 0.0 0.00 0.63 0.55 86 1014.4
20260507014603 51 353 0.0 0.0 0.00 0.64 0.55 84 1014.2
20260507013118 52 353 0.0 0.0 0.00 0.64 0.55 82 1014.0
20260507011604 52 353 0.0 0.0 0.00 0.64 0.55 80 1014.3
20260507010107 53 353 0.0 0.0 0.00 0.64 0.55 77 1014.0
20260507004555 54 353 0.0 0.0 0.00 0.65 0.55 76 1014.0
20260507003054 55 353 0.0 0.0 0.00 0.65 0.55 75 1013.9
20260507001556 55 353 0.0 0.0 0.00 0.65 0.55 75 1013.9
20260507000051 56 352 0.0 0.0 0.00 0.65 0.55 70 1013.7
20260506234551 56 353 0.0 0.0 0.00 0.77 0.55 68 1013.4
20260506233103 57 353 0.0 1.0 0.00 0.77 0.55 65 1013.6
20260506231551 57 353 0.0 1.0 0.00 0.77 0.55 62 1013.5
20260506230050 58 353 0.0 0.0 0.00 0.77 0.55 63 1013.5
20260506224650 58 354 0.0 1.0 0.00 0.87 0.55 64 1013.0
20260506223046 58 354 0.0 1.0 0.00 0.87 0.55 62 1012.8
20260506221552 58 346 0.0 1.0 0.00 0.87 0.55 63 1013.0
20260506220044 58 8 0.0 1.0 0.00 0.87 0.55 62 1012.9
20260506214543 59 8 0.0 1.0 0.00 0.87 0.55 63 1012.7
20260506213042 59 13 0.0 1.0 0.00 0.87 0.55 62 1012.9
20260506211542 59 338 0.0 1.0 0.00 0.87 0.55 60 1013.4
20260506210042 60 338 0.0 0.0 0.00 0.87 0.55 60 1013.1
20260506204541 60 338 0.0 1.0 0.00 0.87 0.55 60 1013.3
20260506203040 60 318 0.0 1.0 0.00 0.87 0.55 59 1013.0
20260506201541 60 15 0.0 2.0 0.00 0.87 0.55 61 1013.0
20260506200044 60 260 0.0 1.0 0.00 0.87 0.55 60 1013.1
20260506194545 60 290 0.0 3.0 0.00 0.97 0.55 60 1013.4
20260506193037 60 89 0.0 2.0 0.00 0.97 0.55 63 1013.1
20260506191537 60 283 0.0 3.0 0.00 0.97 0.55 60 1012.7
20260506190037 60 355 0.0 1.0 0.00 0.97 0.55 60 1013.1
20260506184536 61 6 1.0 4.0 0.00 0.99 0.55 59 1013.1
20260506183036 61 353 0.0 3.0 0.00 0.99 0.55 60 1012.8
20260506181534 61 32 0.0 2.0 0.00 0.99 0.55 60 1012.7
20260506180038 61 276 0.0 2.0 0.00 0.99 0.55 64 1012.8
20260506174532 61 93 0.0 2.0 0.00 0.99 0.55 62 1012.7
20260506173034 60 287 0.0 1.0 0.00 0.99 0.55 62 1012.9
20260506171527 59 6 0.0 2.0 0.00 0.99 0.55 63 1013.0
20260506170025 59 107 0.0 2.0 0.00 0.99 0.55 64 1013.2
20260506164525 59 301 0.0 2.0 0.00 0.99 0.55 70 1013.3
20260506163024 57 18 0.0 4.0 0.00 0.99 0.55 67 1013.5
20260506161524 57 303 0.0 3.0 0.00 0.99 0.55 70 1013.5
20260506160019 56 294 0.0 1.0 0.00 0.99 0.55 71 1013.4
20260506154519 55 296 0.0 2.0 0.00 0.99 0.55 78 1013.3
20260506153015 54 148 0.0 2.0 0.00 0.99 0.55 82 1012.8
20260506151515 53 50 0.0 1.0 0.00 0.99 0.55 80 1013.0
20260506150015 52 145 0.0 1.0 0.00 0.99 0.55 84 1012.8
20260506144512 51 293 0.0 0.0 0.00 0.00 0.55 85 1012.9
20260506143010 49 303 0.0 1.0 0.00 0.99 0.55 87 1012.9
20260506141507 48 346 0.0 1.0 0.00 0.99 0.55 90 1012.6
20260506140006 47 350 0.0 1.0 0.00 0.99 0.55 92 1012.2
20260506134505 46 15 0.0 1.0 0.00 0.99 0.55 92 1012.3
20260506133003 46 135 0.0 1.0 0.00 0.99 0.55 93 1012.3
20260506131502 46 307 0.0 0.0 0.00 0.99 0.55 93 1011.7
20260506130001 46 4 0.0 1.0 0.00 0.99 0.55 93 1011.7
20260506124500 46 6 0.0 0.0 0.00 0.99 0.55 93 1011.8
20260506123100 45 340 0.0 0.0 0.00 0.99 0.55 94 1011.9
20260506121659 45 338 0.0 0.0 0.00 0.99 0.55 94 1011.5
20260506120119 45 338 0.0 1.0 0.00 0.99 0.55 94 1011.7
20260506114557 44 338 0.0 0.0 0.00 0.99 0.55 94 1011.4
20260506113058 44 338 0.0 1.0 0.00 0.99 0.55 93 1011.1
20260506111551 45 338 0.0 1.0 0.00 0.99 0.55 93 1010.9
20260506110048 46 13 0.0 1.0 0.00 0.99 0.55 94 1010.3
20260506104547 46 296 0.0 0.0 0.00 0.99 0.55 94 1010.5
20260506103041 47 359 0.0 1.0 0.00 0.99 0.55 94 1009.9
20260506101538 48 26 0.0 1.0 0.00 0.99 0.55 94 1009.3
20260506100037 48 269 0.0 2.0 0.00 0.99 0.55 94 1009.4
20260506094537 48 338 0.0 1.0 0.00 0.99 0.55 94 1008.9
20260506093044 48 338 0.0 1.0 0.00 0.99 0.55 94 1008.7
20260506091533 48 267 0.0 0.0 0.00 0.99 0.55 94 1008.7
20260506090031 48 20 0.0 1.0 0.01 0.99 0.55 94 1008.3
20260506084532 48 312 0.0 2.0 0.01 0.99 0.55 94 1008.9
20260506083029 48 345 0.0 3.0 0.02 0.99 0.55 93 1008.6
20260506081523 49 271 0.0 1.0 0.03 0.98 0.54 94 1007.8
20260506073015 50 19 0.0 3.0 0.08 0.97 0.53 93 1007.1
20260506071513 51 25 0.0 2.0 0.08 0.95 0.51 93 1006.7